Regional Weather Roundup
Issued by NWS Goodland, KS

Home | Current Version | Previous Version | Text Only | Print | Product List | Glossary Off
Versions: 1 2 3 4 5 6 7 8 9 10 11 12 13 14 15 16 17 18 19 20 21 22 23 24 25 26 27 28 29 30 31 32 33 34 35 36 37 38 39 40 41 42 43 44 45 46 47 48 49 50

153
ASUS43 KGLD 221008
RWRGLD

GOODLAND FORECAST AREA HOURLY WEATHER ROUNDUP
NATIONAL WEATHER SERVICE GOODLAND KS
400 AM MDT THU JUN 22 2017

...OFFICIAL OBSERVATIONS...

CITY           SKY/WX    TMP DP  RH WIND       PRES   REMARKS
GOODLAND KS    CLEAR     72  56  57 SW17      29.78F
HILL CITY KS   CLEAR     66  60  81 SW7       29.75F
IMPERIAL NEB   PTCLDY    71  51  49 SW12      29.72F
MCCOOK NEB     CLEAR     67  56  67 S12       29.70F
AKRON CO       CLEAR     70  40  33 SW14      29.84F
BURLINGTON CO  CLEAR     72  54  53 SW20G26   29.84S
LIMON CO       CLEAR     50  40  68 CALM      29.94S
$$

...UNOFFICIAL OBSERVATIONS...

CITY           SKY/WX    TMP DP  RH WIND       PRES   REMARKS
LENORA KS        N/A     66  32  28 MISG        N/A
NORTON KS      CLEAR     70  54  56 S9        29.72S
SHARON SPRINGS   N/A     71  58  64 S16G25      N/A
TRENTON NEB      N/A     72  32  23 W5          N/A
KIT CARSON CO    N/A     63  52  67 CALM        N/A
YUMA CO        FAIR      59  43  55 SW8       29.80F
$$




USA.gov is the U.S. government's official web portal to all federal, state and local government web resources and services.